Location: Dürabuch
(48.2640°N, 11.2185°E)
Time: 02:41:02
(UTC+00:00)

Cosmos 1733 Rocket - Pass Details

Date: 23 May 2024
Orbit: 600 x 624 km, 82.5° (Epoch: 19 June)

Event Time Altitude Azimuth Distance (km) Brightness Sun altitude
Rises 00:24:52 0° 344° (NNW) 2,866 7.4 -19.2°
Reaches altitude 10° 00:27:10 10° 337° (NNW) 1,960 6.3 -19.1°
Maximum altitude 00:31:13 40° 268° (W) 896 3.7 -18.8°
Enters shadow 00:32:05 36° 238° (WSW) 969 3.6 -18.8°
